Hourly Data Report for August 12, 2020

LYTTON RCS
BRITISH COLUMBIA
Current Station Operator: ECCC - MSC

50°13'28.000" N
121°34'55.000" W
225.00 m
1114746
71765
VLY

Download Data

Hourly Data (August 2020)
Hourly Data Report for August 12, 2020
TIME Temp Definition
°C
Dew Point Definition
°C
Rel Hum Definition
%
Wind Dir Definition
10's deg

Wind Spd Definition
km/h
Visibility Definition
km
Stn Press Definition
kPa
Hmdx Definition


Wind Chill Definition


Weather Definition


00:00 16.7 6.7 52 17 10   98.41     LegendNANA
01:00 16.3 5.9 50 16 7   98.44     LegendNANA
02:00 16.1 5.4 49 19 10   98.46     LegendNANA
03:00 15.8 5.3 50 18 16   98.48     LegendNANA
04:00 15.1 5.4 52 18 12   98.49     LegendNANA
05:00 15.0 5.8 54 17 14   98.52     LegendNANA
06:00 15.0 6.3 56 16 8   98.58     LegendNANA
07:00 15.1 7.0 58 18 16   98.59     LegendNANA
08:00 17.4 7.3 51 18 24   98.57     LegendNANA
09:00 19.0 7.1 46 20 21   98.52     LegendNANA
10:00 20.4 6.4 40 18 29   98.54     LegendNANA
11:00 20.1 6.9 42 19 25   98.54     LegendNANA
12:00 22.9 5.4 32 19 28   98.49     LegendNANA
13:00 23.1 4.4 30 19 29   98.44     LegendNANA
14:00 23.9 4.2 28 18 36   98.42     LegendNANA
15:00 23.4 3.7 28 18 34   98.41     LegendNANA
16:00 23.9 5.3 30 18 30   98.42     LegendNANA
17:00 23.2 4.5 30 19 36   98.45     LegendNANA
18:00 21.2 5.0 35 18 32   98.52     LegendNANA
19:00 20.0 5.6 39 19 30   98.60     LegendNANA
20:00 19.0 5.8 42 19 26   98.69     LegendNANA
21:00 18.0 6.0 45 20 26   98.76     LegendNANA
22:00 17.2 6.0 48 20 27   98.81     LegendNANA
23:00 16.7 6.1 50 19 27   98.85     LegendNANA

Notes on Data Quality.

Legend

  • E = Estimated
  • M = Missing
  • NA = Not Available*
  • [empty] = Indicates an unobserved value
Date modified: